When you browse on this site, cookies collect data to enhance your experience and personalize the content and advertising you see.
Visit our Privacy Policy to learn more. By continuing to use the site, you agree to this use of cookies and data.
  • In United Kingdom
  • List of Countries
  • For 7 days
  • Water Temperature
  • Satellite Maps
  • Weather Map
  • Weather Widgets
  • user-avatar
    Login

    Hourly Weather Hawalii

    Today, 26 April, Friday

    Time Temperature Precipitation Wind Pressure Humidity
    00:00 +26°C° 0 mm 5 mps 760 mmHg 23%
    01:00 +25°C° 0 mm 5 mps 760 mmHg 24%
    02:00 +25°C° 0 mm 5 mps 760 mmHg 25%
    03:00 +23°C° 0 mm 5 mps 760 mmHg 26%
    04:00 +23°C° 0 mm 5 mps 760 mmHg 26%
    05:00 +23°C° 0 mm 4 mps 760 mmHg 26%
    06:00 +22°C° 0 mm 4 mps 760 mmHg 27%
    07:00 +25°C° 0 mm 5 mps 760 mmHg 24%
    08:00 +26°C° 0 mm 5 mps 761 mmHg 22%
    09:00 +27°C° 0 mm 5 mps 761 mmHg 19%
    10:00 +28°C° 0 mm 5 mps 761 mmHg 18%
    11:00 +28°C° 0 mm 5 mps 761 mmHg 17%
    12:00 +29°C° 0 mm 5 mps 760 mmHg 16%
    13:00 +30°C° 0 mm 5 mps 760 mmHg 15%
    14:00 +30°C° 0 mm 5 mps 759 mmHg 15%
    15:00 +32°C° 0 mm 4 mps 759 mmHg 14%
    16:00 +32°C° 0 mm 4 mps 759 mmHg 14%
    17:00 +30°C° 0 mm 4 mps 759 mmHg 14%
    18:00 +30°C° 0 mm 4 mps 759 mmHg 14%
    19:00 +30°C° 0 mm 4 mps 759 mmHg 15%
    20:00 +29°C° 0 mm 3 mps 759 mmHg 15%
    21:00 +29°C° 0 mm 3 mps 759 mmHg 16%
    22:00 +28°C° 0 mm 3 mps 759 mmHg 16%
    23:00 +28°C° 0 mm 3 mps 759 mmHg 16%

    Tomorrow, 27 April, Saturday

    Time Temperature Precipitation Wind Pressure Humidity
    00:00 +27°C° 0 mm 3 mps 759 mmHg 17%
    01:00 +27°C° 0 mm 3 mps 759 mmHg 17%
    02:00 +26°C° 0 mm 3 mps 759 mmHg 18%
    03:00 +26°C° 0 mm 3 mps 759 mmHg 18%
    04:00 +26°C° 0 mm 3 mps 759 mmHg 18%
    05:00 +25°C° 0 mm 3 mps 760 mmHg 19%
    06:00 +25°C° 0 mm 3 mps 760 mmHg 19%
    07:00 +26°C° 0 mm 3 mps 760 mmHg 17%
    08:00 +27°C° 0 mm 2 mps 760 mmHg 16%
    09:00 +28°C° 0 mm 2 mps 761 mmHg 15%
    10:00 +29°C° 0 mm 2 mps 760 mmHg 14%
    11:00 +30°C° 0 mm 2 mps 760 mmHg 14%
    12:00 +31°C° 0 mm 1 mps 760 mmHg 13%
    13:00 +31°C° 0 mm 2 mps 760 mmHg 14%
    14:00 +31°C° 0 mm 2 mps 759 mmHg 14%
    15:00 +33°C° 0 mm 3 mps 759 mmHg 14%
    16:00 +32°C° 0 mm 4 mps 759 mmHg 16%
    17:00 +32°C° 0 mm 4 mps 759 mmHg 17%
    18:00 +30°C° 0 mm 5 mps 758 mmHg 18%
    19:00 +30°C° 0 mm 6 mps 759 mmHg 22%
    20:00 +30°C° 0 mm 6 mps 759 mmHg 25%
    21:00 +29°C° 0 mm 7 mps 759 mmHg 29%
    22:00 +29°C° 0 mm 6 mps 759 mmHg 29%
    23:00 +29°C° 0 mm 5 mps 759 mmHg 30%

    Day after tomorrow, 28 April, Sunday

    Time Temperature Precipitation Wind Pressure Humidity
    00:00 +29°C° 0 mm 3 mps 758 mmHg 31%
    01:00 +28°C° 0 mm 5 mps 758 mmHg 31%
    02:00 +28°C° 0 mm 6 mps 758 mmHg 31%
    03:00 +28°C° 0 mm 8 mps 758 mmHg 32%
    04:00 +27°C° 0.3 mm 6 mps 759 mmHg 36%
    05:00 +26°C° 0.3 mm 5 mps 759 mmHg 41%
    06:00 +25°C° 0.3 mm 4 mps 759 mmHg 45%
    07:00 +26°C° 0 mm 5 mps 759 mmHg 40%
    08:00 +27°C° 0 mm 5 mps 760 mmHg 35%
    09:00 +28°C° 0 mm 5 mps 760 mmHg 29%
    10:00 +28°C° 0 mm 6 mps 760 mmHg 29%
    11:00 +29°C° 0 mm 6 mps 760 mmHg 29%
    12:00 +29°C° 0 mm 7 mps 760 mmHg 29%
    13:00 +29°C° 0 mm 6 mps 760 mmHg 31%
    14:00 +29°C° 0 mm 6 mps 759 mmHg 33%
    15:00 +29°C° 0 mm 5 mps 759 mmHg 35%
    16:00 +29°C° 0 mm 5 mps 759 mmHg 37%
    17:00 +28°C° 0 mm 4 mps 759 mmHg 38%
    18:00 +28°C° 0 mm 4 mps 759 mmHg 39%
    19:00 +27°C° 0 mm 3 mps 759 mmHg 40%
    20:00 +27°C° 0 mm 2 mps 759 mmHg 41%
    21:00 +27°C° 0 mm 2 mps 760 mmHg 41%
    22:00 +27°C° 0 mm 2 mps 759 mmHg 41%
    23:00 +26°C° 0 mm 2 mps 759 mmHg 41%

    29 April, Monday

    Time Temperature Precipitation Wind Pressure Humidity
    00:00 +26°C° 0 mm 2 mps 759 mmHg 40%
    01:00 +26°C° 0 mm 2 mps 759 mmHg 40%
    02:00 +26°C° 0 mm 2 mps 759 mmHg 39%
    03:00 +25°C° 0 mm 1 mps 758 mmHg 38%
    04:00 +25°C° 0 mm 1 mps 759 mmHg 38%
    05:00 +25°C° 0 mm 1 mps 759 mmHg 37%
    06:00 +25°C° 0 mm 1 mps 759 mmHg 36%
    07:00 +26°C° 0 mm 1 mps 760 mmHg 34%
    08:00 +27°C° 0 mm 1 mps 760 mmHg 31%
    09:00 +28°C° 0 mm 1 mps 761 mmHg 28%
    10:00 +29°C° 0 mm 1 mps 760 mmHg 26%
    11:00 +28°C° 0 mm 0 mps 760 mmHg 24%
    12:00 +29°C° 0 mm 0 mps 760 mmHg 22%
    13:00 +32°C° 0 mm 1 mps 759 mmHg 20%
    14:00 +32°C° 0 mm 1 mps 758 mmHg 19%
    15:00 +33°C° 0 mm 1 mps 758 mmHg 18%
    16:00 +34°C° 0 mm 2 mps 758 mmHg 17%
    17:00 +34°C° 0 mm 2 mps 757 mmHg 17%
    18:00 +34°C° 0 mm 2 mps 757 mmHg 17%
    19:00 +34°C° 0 mm 2 mps 757 mmHg 18%
    20:00 +32°C° 0 mm 2 mps 758 mmHg 19%
    21:00 +31°C° 0 mm 3 mps 758 mmHg 20%
    22:00 +31°C° 0 mm 3 mps 758 mmHg 20%
    23:00 +30°C° 0 mm 3 mps 758 mmHg 20%

    30 April, Tuesday

    Time Temperature Precipitation Wind Pressure Humidity
    00:00 +30°C° 0 mm 3 mps 757 mmHg 21%
    01:00 +29°C° 0 mm 3 mps 757 mmHg 21%
    02:00 +29°C° 0 mm 2 mps 757 mmHg 21%
    03:00 +29°C° 0 mm 2 mps 757 mmHg 21%
    04:00 +29°C° 0 mm 2 mps 757 mmHg 21%
    05:00 +29°C° 0 mm 2 mps 757 mmHg 21%
    06:00 +29°C° 0 mm 3 mps 757 mmHg 21%
    07:00 +30°C° 0 mm 2 mps 758 mmHg 20%
    08:00 +31°C° 0 mm 2 mps 758 mmHg 18%
    09:00 +33°C° 0 mm 1 mps 758 mmHg 16%
    10:00 +34°C° 0 mm 1 mps 758 mmHg 15%
    11:00 +34°C° 0 mm 1 mps 757 mmHg 14%
    12:00 +35°C° 0 mm 1 mps 757 mmHg 13%
    13:00 +37°C° 0 mm 2 mps 756 mmHg 13%
    14:00 +37°C° 0 mm 3 mps 756 mmHg 12%
    15:00 +37°C° 0 mm 4 mps 755 mmHg 12%
    16:00 +37°C° 0 mm 4 mps 755 mmHg 13%
    17:00 +36°C° 0 mm 4 mps 755 mmHg 14%
    18:00 +36°C° 0 mm 5 mps 755 mmHg 14%
    19:00 +35°C° 0 mm 5 mps 755 mmHg 15%
    20:00 +34°C° 0 mm 5 mps 755 mmHg 16%
    21:00 +34°C° 0 mm 4 mps 755 mmHg 17%
    22:00 +33°C° 0 mm 4 mps 755 mmHg 18%
    23:00 +33°C° 0 mm 4 mps 754 mmHg 18%

    1 May, Wednesday

    Time Temperature Precipitation Wind Pressure Humidity
    00:00 +31°C° 0 mm 3 mps 754 mmHg 19%
    01:00 +31°C° 0 mm 3 mps 753 mmHg 19%
    02:00 +31°C° 0 mm 3 mps 753 mmHg 19%
    03:00 +31°C° 0 mm 3 mps 753 mmHg 20%
    04:00 +30°C° 0 mm 4 mps 753 mmHg 21%
    05:00 +30°C° 0 mm 4 mps 753 mmHg 22%
    06:00 +30°C° 0 mm 5 mps 754 mmHg 22%
    07:00 +32°C° 0 mm 5 mps 754 mmHg 21%
    08:00 +34°C° 0 mm 6 mps 754 mmHg 19%
    09:00 +35°C° 0 mm 6 mps 754 mmHg 17%
    10:00 +36°C° 0 mm 6 mps 754 mmHg 18%
    11:00 +38°C° 0 mm 6 mps 753 mmHg 18%
    12:00 +39°C° 0 mm 6 mps 753 mmHg 19%
    13:00 +39°C° 0 mm 6 mps 753 mmHg 20%
    14:00 +39°C° 0 mm 7 mps 752 mmHg 21%
    15:00 +39°C° 0 mm 7 mps 752 mmHg 22%
    16:00 +36°C° 0 mm 7 mps 751 mmHg 27%
    17:00 +34°C° 0 mm 7 mps 751 mmHg 32%
    18:00 +32°C° 0 mm 7 mps 751 mmHg 38%
    19:00 +32°C° 0 mm 7 mps 752 mmHg 37%
    20:00 +30°C° 0 mm 6 mps 752 mmHg 37%
    21:00 +30°C° 0 mm 5 mps 752 mmHg 37%
    22:00 +30°C° 0 mm 5 mps 752 mmHg 37%
    23:00 +30°C° 0 mm 4 mps 752 mmHg 38%
    Show more